Regional Weather Roundup
Issued by NWS Newport/Morehead, NC

Current Version | Previous Version | Text Only | Print | Product List | Glossary On
Versions: 1 2 3 4 5 6 7 8 9 10 11 12 13 14 15 16 17 18 19 20 21 22 23 24 25 26 27 28 29 30 31 32 33 34 35 36 37 38 39 40 41 42 43 44 45 46 47 48 49 50
000 ASUS42 KMHX 021710 RWRMHX WEATHER ROUNDUP FOR EASTERN NORTH CAROLINA NATIONAL WEATHER SERVICE NEWPORT/MOREHEAD CITY NC 100 PM EDT TUE SEP 02 2014 NOTE: "FAIR" INDICATES FEW OR NO CLOUDS BELOW 12,000 FEET WITH NO SIGNIFICANT WEATHER AND/OR OBSTRUCTIONS TO VISIBILITY NCZ015>017-031-032-045>047-102-103-021800- NORTH COAST CITY SKY/WX TMP DP RH WIND PRES REMARKS EDENTON SUNNY 90 74 60 SW7 30.02F ELIZABETH CITY SUNNY 91 74 57 SW8 30.01F HX 100 KITTY HAWK SUNNY 92 74 55 SW5 30.01F HX 101 MANTEO SUNNY 90 74 59 S6 30.02F $$ NCZ045>047-081-094-103-104-021800- CENTRAL COAST CITY SKY/WX TMP DP RH WIND PRES REMARKS FRISCO SUNNY 85 78 80 SW10G17 30.06F SWANQUARTER N/A 90 N/A N/A S9 30.00S $$ NCZ095-097-098-100-101-021800- SOUTHERN COAST CITY SKY/WX TMP DP RH WIND PRES REMARKS BEAUFORT SUNNY 87 78 74 S14 30.07S HX 100 CEDAR ISLAND N/A 91 N/A N/A S5 30.09S JACKSONVILLE MOSUNNY 92 74 55 VRB7 30.05F HX 101 NEWPORT NOT AVBL PINEY ISLAND SUNNY 93 76 57 SW8 30.05F HX 105 WILMINGTON MOSUNNY 91 73 55 SW6 30.06F $$ NCZ011>013-027>030-043-044-078>080-089-090>093-098-021800- COASTAL PLAIN CITY SKY/WX TMP DP RH WIND PRES REMARKS AHOSKIE SUNNY 89 73 57 S7 30.01F CLINTON NOT AVBL ELIZABETHTOWN MOSUNNY 92 73 54 CALM 30.06S HX 101 GOLDSBORO SUNNY 93 76 58 W5 30.02F HX 105 GREENVILLE SUNNY 91 73 55 W7 30.05F HX 100 HAVELOCK MOSUNNY 93 71 48 W7 30.06F HX 100 KENANSVILLE PTSUNNY 90 71 53 CALM 30.06F KINSTON MOSUNNY 93 73 52 SW3 30.05F HX 102 NEW BERN SUNNY 94 75 54 S7 30.05F HX 105 RICHLANDS SUNNY 93 72 49 SW8 30.05F HX 100 ROANOKE RAPIDS NOT AVBL ROCKY MOUNT SUNNY 94 72 48 VRB6 30.03F HX 102 WASHINGTON SUNNY 92 73 52 SW7 30.04F HX 100 WHITEVILLE SUNNY 90 75 62 CALM 30.06S HX 100 $$ AMZ130-135-150-152-154-156-158-170-250-252-270-ANZ085-086-088-633-658-670-021800- MARINE OBSERVATIONS STATION/POSITION TIME TEMP WIND PRES WAVE SWELL AIR SEA DIR/SP/G HT/PER HT/PER (UTC) (F) (DEG/KT/KT) (MB) (FT/S) (FT/S) CHESAPEAKE LIGHT 1600 82 220/ 10/ 10 1016.8 BUOY 44014 1700 78 78 210/ 10/ 12 1015.9 3/ 9 2/ 9 DUCK 1700 85 75 220/ 11/ 12 1015.8 2E DUCK 1700 N/A 2/11 2/11 OREGON INLET 1700 82 83 200/ 12/ 14 1016.8 BUOY 44095 1700 80 N/A 3/13 2/13 20E OREGON INLET NOT AVBL HATTERAS CG 1700 85 83 210/ 9/ 12 1018.3 DIAMOND BUOY 1700 81 210/ 12/ 14 1017.9 3/ 4 2/ 9 CAPE LOOKOUT 1700 83 210/ 10/ 12 1018.5 BEAUFORT LAB 1700 84 83 210/ 9/ 12 1017.9 30 SE NEW RIVER 1600 82 83 210/ 8/ 10 1019.2 5 SE WRIGHTSVILL 1600 80 83 180/ 8/ 10 N/A BUOY 41002 1615 82 84 210/ 6/ 8 1021.1 3/13 3/13 BUOY 41004 1700 83 84 170/ 8/ 10 1018.9 2/ 8 2/ 8 $$

USA.gov is the U.S. government's official web portal to all federal, state and local government web resources and services.